Вернуться в каталог

STARLINK-36560

АктивенСвязьSSO
NORAD 67585·PAYLOAD·🇺🇸 United States

Запущен Jan 25, 2026 с Vandenberg Space Force Base

Loading…

Ближайшие Пролёты (ближайшие 24 часа)

TLE

СвежийSource: CelesTrak SupGP

Эпоха: Sep 15, 2026, 04:22 UTC

1 67585C 26016AA  26258.18243056 -.00018851  00000+0 -58516-3 0  2588
2 67585  97.2851 316.8570 0000567  80.4837 191.0811 15.33451073    17

Отслеживайте STARLINK-36560 в реальном времени с AllMySat

Download on the App Store